Simultaneous Nadir Overpasses (SNOs) Predictions

Prediction of SNOs between NOAA-19 and TERRA Satellite Orbit:

Table of predicted SNOs for the next 14.0 days since TLE Epoch: 7/14/2018
Index Date (NOAA-19) Time (NOAA-19) Lat,Lon (NOAA-19) SZA (NOAA-19 ) Date (TERRA) Time (TERRA) Lat,Lon (TERRA) SZA (TERRA ) Distance(km) Time Diff (sec)
1 07/15/2018 11:52:10 77.25, 18.70 56.20 07/15/2018 11:53:11 77.25, 18.71 56.22 0.23 61
2 07/15/2018 12:43:08 -77.23,-173.92 123.81 07/15/2018 12:42:39 -77.23,-173.76 123.81 3.89 29
3 07/17/2018 17:25:43 -77.29, 115.24 123.41 07/17/2018 17:26:55 -77.29, 115.40 123.38 3.92 72
4 07/17/2018 18:16:44 77.20, -77.14 56.55 07/17/2018 18:16:22 77.22, -77.21 56.55 2.55 22
5 07/19/2018 22:59:26 77.53,-149.28 57.16 07/19/2018 23:00:35 77.41,-147.53 57.17 44.27 69
6 07/19/2018 23:50:16 -77.22, 19.48 123.04 07/19/2018 23:50:06 -77.25, 19.47 123.02 3.41 10
7 07/22/2018 05:23:54 77.24, 116.04 57.41 07/22/2018 05:23:49 77.23, 115.96 57.39 2.32 5
8 07/24/2018 10:57:25 -77.26,-147.35 122.13 07/24/2018 10:57:33 -77.25,-147.39 122.14 1.43 8
9 07/26/2018 16:31:03 77.25, -50.65 58.36 07/26/2018 16:31:15 77.27, -50.75 58.37 3.11 12




NCC Satellite Simultaneous Nadir Overpasses (SNOs) Prediction Service
